• In Portugal
  • List of Countries
  • For 7 days
  • Water Temperature
  • Satellite Maps
  • Weather Map
  • Weather Widgets
  • user-avatar
    Login

    Hourly Weather Córdoba

    Today, 23 September, Sunday

    Time Temperature Precipitation Wind Pressure Humidity
    00:00 +25°C° 0.2 mm 5 mps 717 mmHg 69%
    01:00 +23°C° 0.2 mm 6 mps 717 mmHg 71%
    02:00 +22°C° 0.2 mm 6 mps 717 mmHg 73%
    03:00 +21°C° 0.1 mm 6 mps 717 mmHg 71%
    04:00 +20°C° 0.1 mm 6 mps 718 mmHg 68%
    05:00 +20°C° 0.1 mm 5 mps 718 mmHg 65%
    06:00 +20°C° 0 mm 6 mps 718 mmHg 66%
    07:00 +20°C° 0 mm 6 mps 719 mmHg 66%
    08:00 +21°C° 0 mm 6 mps 719 mmHg 67%
    09:00 +22°C° 0 mm 6 mps 720 mmHg 62%
    10:00 +23°C° 0 mm 6 mps 720 mmHg 58%
    11:00 +26°C° 0 mm 6 mps 721 mmHg 53%
    12:00 +27°C° 0 mm 5 mps 721 mmHg 49%
    13:00 +27°C° 0 mm 5 mps 720 mmHg 46%
    14:00 +28°C° 0 mm 5 mps 720 mmHg 42%
    15:00 +27°C° 0 mm 5 mps 720 mmHg 42%
    16:00 +27°C° 0 mm 5 mps 720 mmHg 42%
    17:00 +26°C° 0 mm 5 mps 720 mmHg 42%
    18:00 +25°C° 0 mm 4 mps 721 mmHg 45%
    19:00 +22°C° 0 mm 4 mps 722 mmHg 47%
    20:00 +20°C° 0 mm 4 mps 722 mmHg 50%
    21:00 +20°C° 0 mm 3 mps 723 mmHg 51%
    22:00 +19°C° 0 mm 3 mps 723 mmHg 53%
    23:00 +18°C° 0 mm 3 mps 724 mmHg 54%

    Tomorrow, 24 September, Monday

    Time Temperature Precipitation Wind Pressure Humidity
    00:00 +17°C° 0 mm 3 mps 724 mmHg 56%
    01:00 +16°C° 0 mm 3 mps 724 mmHg 58%
    02:00 +16°C° 0 mm 3 mps 724 mmHg 59%
    03:00 +14°C° 0 mm 3 mps 724 mmHg 60%
    04:00 +13°C° 0 mm 3 mps 724 mmHg 61%
    05:00 +14°C° 0 mm 2 mps 724 mmHg 61%
    06:00 +14°C° 0 mm 2 mps 725 mmHg 58%
    07:00 +14°C° 0 mm 3 mps 725 mmHg 54%
    08:00 +16°C° 0 mm 3 mps 725 mmHg 51%
    09:00 +18°C° 0 mm 3 mps 725 mmHg 47%
    10:00 +20°C° 0 mm 3 mps 725 mmHg 42%
    11:00 +23°C° 0 mm 2 mps 725 mmHg 38%
    12:00 +24°C° 0 mm 3 mps 725 mmHg 36%
    13:00 +25°C° 0 mm 4 mps 724 mmHg 34%
    14:00 +26°C° 0 mm 4 mps 724 mmHg 32%
    15:00 +25°C° 0 mm 4 mps 723 mmHg 33%
    16:00 +25°C° 0 mm 4 mps 723 mmHg 34%
    17:00 +23°C° 0 mm 4 mps 722 mmHg 34%
    18:00 +22°C° 0 mm 3 mps 722 mmHg 39%
    19:00 +20°C° 0 mm 3 mps 723 mmHg 45%
    20:00 +18°C° 0 mm 2 mps 723 mmHg 50%
    21:00 +17°C° 0 mm 2 mps 723 mmHg 52%
    22:00 +18°C° 0 mm 1 mps 724 mmHg 54%
    23:00 +16°C° 0 mm 1 mps 724 mmHg 56%

    Day after tomorrow, 25 September, Tuesday

    Time Temperature Precipitation Wind Pressure Humidity
    00:00 +16°C° 0 mm 1 mps 724 mmHg 58%
    01:00 +15°C° 0 mm 1 mps 723 mmHg 59%
    02:00 +15°C° 0 mm 1 mps 723 mmHg 61%
    03:00 +15°C° 0 mm 1 mps 722 mmHg 63%
    04:00 +14°C° 0 mm 1 mps 722 mmHg 66%
    05:00 +14°C° 0 mm 1 mps 722 mmHg 69%
    06:00 +15°C° 0 mm 2 mps 723 mmHg 66%
    07:00 +16°C° 0 mm 2 mps 723 mmHg 63%
    08:00 +17°C° 0 mm 2 mps 723 mmHg 60%
    09:00 +19°C° 0 mm 3 mps 723 mmHg 55%
    10:00 +21°C° 0 mm 3 mps 724 mmHg 50%
    11:00 +24°C° 0 mm 3 mps 724 mmHg 45%
    12:00 +25°C° 0 mm 3 mps 723 mmHg 44%
    13:00 +26°C° 0 mm 3 mps 722 mmHg 43%
    14:00 +26°C° 0 mm 3 mps 721 mmHg 42%
    15:00 +26°C° 0 mm 3 mps 721 mmHg 45%
    16:00 +26°C° 0 mm 3 mps 720 mmHg 48%
    17:00 +25°C° 0 mm 4 mps 720 mmHg 51%
    18:00 +22°C° 0 mm 3 mps 720 mmHg 60%
    19:00 +21°C° 0 mm 3 mps 721 mmHg 69%
    20:00 +19°C° 0 mm 2 mps 721 mmHg 79%
    21:00 +19°C° 0 mm 2 mps 721 mmHg 81%
    22:00 +18°C° 0 mm 2 mps 722 mmHg 83%
    23:00 +19°C° 0 mm 1 mps 722 mmHg 86%

    26 September, Wednesday

    Time Temperature Precipitation Wind Pressure Humidity
    00:00 +19°C° 0 mm 1 mps 722 mmHg 87%
    01:00 +19°C° 0 mm 1 mps 721 mmHg 88%
    02:00 +18°C° 0 mm 1 mps 721 mmHg 89%
    03:00 +18°C° 0 mm 1 mps 721 mmHg 89%
    04:00 +18°C° 0 mm 1 mps 721 mmHg 90%
    05:00 +17°C° 0 mm 2 mps 721 mmHg 91%
    06:00 +17°C° 0 mm 2 mps 721 mmHg 89%
    07:00 +17°C° 0 mm 2 mps 722 mmHg 86%
    08:00 +18°C° 0 mm 2 mps 722 mmHg 84%
    09:00 +19°C° 0 mm 2 mps 722 mmHg 78%
    10:00 +20°C° 0 mm 2 mps 722 mmHg 73%
    11:00 +21°C° 0 mm 2 mps 722 mmHg 68%
    12:00 +23°C° 0 mm 2 mps 722 mmHg 63%
    13:00 +24°C° 0 mm 3 mps 721 mmHg 57%
    14:00 +25°C° 0 mm 3 mps 720 mmHg 52%
    15:00 +25°C° 0 mm 3 mps 720 mmHg 53%
    16:00 +25°C° 0 mm 4 mps 719 mmHg 54%
    17:00 +23°C° 0 mm 4 mps 719 mmHg 56%
    18:00 +22°C° 0 mm 3 mps 719 mmHg 64%
    19:00 +20°C° 0 mm 3 mps 719 mmHg 72%
    20:00 +18°C° 0 mm 2 mps 720 mmHg 80%
    21:00 +18°C° 0 mm 2 mps 720 mmHg 81%
    22:00 +18°C° 0 mm 2 mps 720 mmHg 81%
    23:00 +19°C° 0 mm 1 mps 720 mmHg 82%

    27 September, Thursday

    Time Temperature Precipitation Wind Pressure Humidity
    00:00 +19°C° 0 mm 1 mps 720 mmHg 84%
    01:00 +19°C° 0 mm 1 mps 720 mmHg 85%
    02:00 +18°C° 0 mm 1 mps 719 mmHg 87%
    03:00 +18°C° 0 mm 1 mps 719 mmHg 87%
    04:00 +18°C° 0 mm 1 mps 719 mmHg 88%
    05:00 +18°C° 0 mm 1 mps 718 mmHg 88%
    06:00 +19°C° 0.1 mm 1 mps 719 mmHg 87%
    07:00 +19°C° 0.1 mm 1 mps 719 mmHg 85%
    08:00 +20°C° 0.1 mm 1 mps 719 mmHg 84%
    09:00 +20°C° 0.1 mm 2 mps 719 mmHg 82%
    10:00 +20°C° 0.1 mm 2 mps 719 mmHg 80%
    11:00 +21°C° 0.1 mm 3 mps 719 mmHg 77%
    12:00 +22°C° 0.1 mm 3 mps 719 mmHg 76%
    13:00 +22°C° 0.1 mm 3 mps 718 mmHg 75%
    14:00 +22°C° 0.1 mm 3 mps 718 mmHg 74%
    15:00 +22°C° 0 mm 3 mps 717 mmHg 75%
    16:00 +24°C° 0 mm 3 mps 717 mmHg 75%
    17:00 +24°C° 0 mm 3 mps 716 mmHg 76%
    18:00 +21°C° 0 mm 3 mps 717 mmHg 82%
    19:00 +20°C° 0 mm 2 mps 717 mmHg 88%
    20:00 +20°C° 0 mm 1 mps 717 mmHg 93%
    21:00 +20°C° 0 mm 1 mps 718 mmHg 94%
    22:00 +20°C° 0 mm 1 mps 718 mmHg 94%
    23:00 +20°C° 0 mm 1 mps 718 mmHg 94%

    28 September, Friday

    Time Temperature Precipitation Wind Pressure Humidity
    00:00 +20°C° 0 mm 1 mps 717 mmHg 93%
    01:00 +19°C° 0 mm 2 mps 717 mmHg 93%
    02:00 +19°C° 0 mm 2 mps 716 mmHg 92%
    03:00 +18°C° 0 mm 2 mps 716 mmHg 92%
    04:00 +18°C° 0 mm 2 mps 716 mmHg 92%
    05:00 +18°C° 0 mm 2 mps 716 mmHg 92%
    06:00 +19°C° 0 mm 2 mps 716 mmHg 88%
    07:00 +20°C° 0 mm 3 mps 717 mmHg 84%
    08:00 +21°C° 0 mm 3 mps 717 mmHg 80%
    09:00 +25°C° 0 mm 4 mps 717 mmHg 68%
    10:00 +27°C° 0 mm 4 mps 717 mmHg 57%
    11:00 +30°C° 0 mm 5 mps 717 mmHg 45%
    12:00 +33°C° 0 mm 5 mps 716 mmHg 37%
    13:00 +34°C° 0 mm 6 mps 715 mmHg 29%
    14:00 +36°C° 0 mm 6 mps 715 mmHg 22%
    15:00 +35°C° 0 mm 6 mps 714 mmHg 24%
    16:00 +35°C° 0 mm 5 mps 714 mmHg 26%
    17:00 +34°C° 0 mm 4 mps 713 mmHg 29%
    18:00 +31°C° 0 mm 3 mps 714 mmHg 38%
    19:00 +29°C° 0 mm 3 mps 714 mmHg 48%
    20:00 +26°C° 0 mm 3 mps 714 mmHg 58%
    21:00 +26°C° 0.2 mm 3 mps 714 mmHg 60%
    22:00 +25°C° 0.2 mm 2 mps 715 mmHg 63%
    23:00 +25°C° 0.2 mm 2 mps 715 mmHg 65%
    Show more